Simultaneous Nadir Overpasses (SNOs) Predictions

Prediction of SNOs between AQUA and METOP-C Satellite Orbit:

Table of predicted SNOs for the next 14.0 days since TLE Epoch: 5/25/2019
Index Date (AQUA) Time (AQUA) Lat,Lon (AQUA) SZA (AQUA ) Date (METOP-C) Time (METOP-C) Lat,Lon (METOP-C) SZA (METOP-C ) Distance(km) Time Diff (sec)
1 05/26/2019 15:12:24 73.76, -53.66 52.59 05/26/2019 15:11:26 73.77, -53.64 52.60 1.15 58
2 05/26/2019 16:01:51 -73.85, 113.78 127.32 05/26/2019 16:02:07 -73.85, 113.89 127.33 3.58 16
3 05/26/2019 16:51:28 74.32, -79.66 53.18 05/26/2019 16:52:36 74.34, -77.56 53.13 63.15 68
4 05/29/2019 10:46:39 73.77, 12.75 52.14 05/29/2019 10:45:49 73.79, 12.82 52.17 2.77 50
5 05/29/2019 11:36:05 -73.81,-179.69 127.82 05/29/2019 11:36:31 -73.83,-179.76 127.81 3.03 26
6 06/01/2019 06:20:52 73.74, 79.25 51.71 06/01/2019 06:20:12 73.76, 79.16 51.73 3.37 40
7 06/01/2019 07:10:19 -73.83,-113.29 128.22 06/01/2019 07:10:53 -73.86,-113.30 128.19 3.34 34
8 06/04/2019 01:55:07 73.77, 145.62 51.38 06/04/2019 01:54:35 73.78, 145.62 51.40 1.11 32
9 06/04/2019 02:44:34 -73.85, -46.89 128.55 06/04/2019 02:45:17 -73.83, -46.95 128.57 2.48 43
10 06/06/2019 20:39:41 -73.09, 45.85 129.64 06/06/2019 20:38:35 -73.03, 42.97 129.60 93.48 66
11 06/06/2019 21:29:22 73.81,-148.02 51.11 06/06/2019 21:28:58 73.81,-147.92 51.11 3.01 24
12 06/06/2019 22:18:49 -73.87, 19.48 128.83 06/06/2019 22:19:40 -73.85, 19.51 128.85 2.32 51




NCC Satellite Simultaneous Nadir Overpasses (SNOs) Prediction Service
